Weather History for KNCA - January, 2014

Change the Weather History Date:

Saturday, January 4, 2014

  Actual Average Record
Temperature  
Mean Temperature 36 °F -  
Max Temperature 48 °F 55 °F 75 °F (2000)
Min Temperature 24 °F 34 °F 15 °F (2008)
Degree Days  
Heating Degree Days 29    
Moisture  
Dew Point 27 °F    
Average Humidity 67    
Maximum Humidity 85    
Minimum Humidity 55    
Precipitation  
Precipitation 0.00 in - - ()
Sea Level Pressure  
Sea Level Pressure 30.43 in    
Wind  
Wind Speed 7 mph (NE)    
Max Wind Speed 9 mph    
Max Gust Speed -    
Visibility 10 miles    
Events      
Averages and records for this station are not official NWS values.
T = Trace of Precipitation, MM = Missing Value Source: NWS Daily Summary

Daily Weather History Graph

Daily Weather History Graph

Search for Another Location

Airport or City:

Trip Planner

Search our weather history database for the weather conditions in past years. The results will help you decide how hot, cold, wet, or windy it might be!

Date:

Astronomy

Jan. 04, 2014 Rise Set
Actual Time 7:17 AM EST 5:12 PM EST
Civil Twilight 6:49 AM EST 5:40 PM EST
Nautical Twilight 6:18 AM EST 6:11 PM EST
Astronomical Twilight 5:47 AM EST 6:42 PM EST
Moon 9:31 AM EST (1/4) 9:18 PM EST (1/4)
Length of Visible Light 10h 50m
Length of Day
9h 54m
Waxing Crescent, 15% of the Moon is Illuminated
Jan 4
Waxing Crescent
Jan 7
First Quarter
Jan 15
Full
Jan 24
Last Quarter
Jan 30
New

Hourly Weather History & Observations

Time (EST) Temp. Windchill Dew Point Humidity Pressure Visibility Wind Dir Wind Speed Gust Speed Precip Events Conditions
12:56 AM 27.0 °F 18.0 °F 12.9 °F 56% 30.49 in 10.0 mi NE 9.2 mph - N/A   Clear
1:56 AM 25.0 °F 18.1 °F 14.0 °F 63% 30.51 in 10.0 mi NNE 5.8 mph - N/A   Clear
2:56 AM 24.1 °F 18.2 °F 14.0 °F 65% 30.52 in 10.0 mi NNE 4.6 mph - N/A   Clear
3:56 AM 25.0 °F 19.3 °F 14.0 °F 63% 30.51 in 10.0 mi North 4.6 mph - N/A   Clear
4:56 AM 24.1 °F 16.0 °F 14.0 °F 65% 30.49 in 10.0 mi North 6.9 mph - N/A   Clear
5:56 AM 24.1 °F 16.0 °F 14.0 °F 65% 30.49 in 10.0 mi North 6.9 mph - N/A   Clear
6:56 AM 24.1 °F 17.0 °F 15.1 °F 69% 30.50 in 10.0 mi North 5.8 mph - N/A   Clear
7:56 AM 25.0 °F 16.3 °F 15.1 °F 66% 30.52 in 10.0 mi North 8.1 mph - N/A   Mostly Cloudy
8:56 AM 28.0 °F 21.7 °F 17.1 °F 63% 30.54 in 10.0 mi NNE 5.8 mph - N/A   Overcast
9:56 AM 30.9 °F 24.3 °F 19.9 °F 64% 30.53 in 10.0 mi NE 6.9 mph - N/A   Overcast
10:56 AM 33.1 °F 27.7 °F 21.9 °F 64% 30.52 in 10.0 mi ENE 5.8 mph - N/A   Overcast
11:56 AM 37.9 °F 32.1 °F 24.1 °F 57% 30.48 in 10.0 mi NNE 8.1 mph - N/A   Overcast
12:56 PM 42.1 °F 36.6 °F 27.0 °F 55% 30.42 in 10.0 mi NE 9.2 mph - N/A   Overcast
1:15 PM 43.0 °F 37.7 °F 28.0 °F 56% 30.39 in 10.0 mi NE 9.2 mph - N/A   Mostly Cloudy
1:56 PM 46.0 °F 41.9 °F 30.9 °F 56% 30.39 in 10.0 mi NE 8.1 mph - N/A   Mostly Cloudy
2:56 PM 48.9 °F - 35.1 °F 59% 30.39 in 10.0 mi NE 8.1 mph - N/A   Clear
3:27 PM 48.9 °F - 35.1 °F 59% 30.38 in 10.0 mi NE 6.9 mph - N/A   Mostly Cloudy
3:56 PM 48.9 °F - 36.0 °F 61% 30.38 in 10.0 mi ENE 6.9 mph - N/A   Overcast
4:29 PM 48.0 °F - 37.0 °F 66% 30.37 in 10.0 mi ENE 9.2 mph - N/A   Scattered Clouds
4:56 PM 46.0 °F 41.9 °F 36.0 °F 68% 30.38 in 10.0 mi ENE 8.1 mph - N/A   Clear
5:56 PM 46.0 °F 43.1 °F 36.0 °F 68% 30.39 in 10.0 mi NE 5.8 mph - N/A   Overcast
6:18 PM 45.0 °F 40.1 °F 34.0 °F 65% 30.38 in 10.0 mi NE 9.2 mph - N/A   Overcast
6:56 PM 43.0 °F 38.8 °F 35.1 °F 74% 30.38 in 10.0 mi NE 6.9 mph - N/A   Overcast
7:31 PM 43.0 °F 38.2 °F 37.0 °F 80% 30.37 in 10.0 mi ENE 8.1 mph - N/A   Overcast
7:56 PM 43.0 °F 38.8 °F 37.9 °F 82% 30.37 in 10.0 mi ENE 6.9 mph - N/A   Mostly Cloudy
8:56 PM 42.1 °F 37.7 °F 36.0 °F 79% 30.35 in 10.0 mi ENE 6.9 mph - N/A   Scattered Clouds
9:56 PM 42.1 °F 37.1 °F 36.0 °F 79% 30.33 in 10.0 mi East 8.1 mph - N/A   Overcast
10:56 PM 41.0 °F 38.0 °F 36.0 °F 82% 30.31 in 10.0 mi East 4.6 mph - N/A   Clear
11:56 PM 42.1 °F 38.4 °F 37.9 °F 85% 30.27 in 10.0 mi ENE 5.8 mph - N/A   Clear